User: anonymous   Login
Location: Unspecified
(0.0000°N, 0.0000°E)
Time: 21:16:01
(UTC+00:00)
Language:

Orbcomm G2 (FM04) - Orbit

View from above orbital plane
View from above orbital plane
View from above satellite
View from above satellite

Ground track
Ground track

The orbit data is extracted from the following two-line orbital elements,

1 25159U 98007C   17141.89908736 +.00000124 +00000-0 +99230-4 0  9994
2 25159 107.9832 233.5019 0044645 320.4816 039.3069 14.29380257002603
Epoch (UTC): 21 May 2017 21:34:41
Eccentricity: 0.0044645
inclination: 107.9832°
perigee height: 762 km
apogee height: 826 km
right ascension of ascending node: 233.5019°
argument of perigee: 320.4816°
revolutions per day: 14.29380257
mean anomaly at epoch: 39.3069°
orbit number at epoch: 260

The dashed part of the orbit path shows where the satellite is in the earth's shadow,  

DLR